Weather History for PASK - December, 2012

Change the Weather History Date:

Monday, December 31, 2012

  Actual Average Record
Temperature  
Mean Temperature 19 °F -  
Max Temperature 26 °F 0 °F 35 °F (2014)
Min Temperature 12 °F -11 °F -45 °F (1999)
Degree Days  
Heating Degree Days 46    
Moisture  
Dew Point 15 °F    
Average Humidity 82    
Maximum Humidity 93    
Minimum Humidity 68    
Precipitation  
Precipitation 0.00 in - - ()
Sea Level Pressure  
Sea Level Pressure 29.51 in    
Wind  
Wind Speed 17 mph (ENE)    
Max Wind Speed 26 mph    
Max Gust Speed 32 mph    
Visibility 9 miles    
Events      
Averages and records for this station are not official NWS values.
T = Trace of Precipitation, MM = Missing Value Source: NWS Daily Summary

Daily Weather History Graph

Daily Weather History Graph

Search for Another Location

Airport or City:

Trip Planner

Search our weather history database for the weather conditions in past years. The results will help you decide how hot, cold, wet, or windy it might be!

Date:

Astronomy

Dec. 31, 2012 Rise Set
Actual Time 12:24 PM AKST 3:02 PM AKST
Civil Twilight 10:39 AM AKST 4:47 PM AKST
Nautical Twilight 9:20 AM AKST 6:06 PM AKST
Astronomical Twilight 8:14 AM AKST 7:12 PM AKST
Moon 9:12 PM AKST (12/31) 11:53 AM AKST (12/31)
Length of Visible Light 6h 07m
Length of Day
2h 37m
Waning Gibbous, 89% of the Moon is Illuminated
Dec 31
Waning Gibbous
Jan 4
Last Quarter
Jan 11
New
Jan 18
First Quarter
Jan 26
Full

Hourly Weather History & Observations

Time (AKST) Temp. Windchill Dew Point Humidity Pressure Visibility Wind Dir Wind Speed Gust Speed Precip Events Conditions
12:16 AM 15.8 °F -0.2 °F 8.6 °F 73% 29.26 in 10.0 mi NE 17.3 mph - N/A   Clear
12:36 AM 15.8 °F -0.6 °F 8.6 °F 73% 29.26 in 10.0 mi NE 18.4 mph - N/A   Mostly Cloudy
12:56 AM 15.8 °F 0.3 °F 8.6 °F 73% 29.28 in 10.0 mi NE 16.1 mph - N/A   Mostly Cloudy
1:16 AM 14.0 °F -0.8 °F 8.6 °F 79% 29.29 in 10.0 mi ENE 13.8 mph - N/A   Partly Cloudy
1:36 AM 12.2 °F -3.1 °F 6.8 °F 79% 29.29 in 10.0 mi NE 13.8 mph - N/A   Clear
1:56 AM 14.0 °F -0.8 °F 6.8 °F 73% 29.30 in 10.0 mi NE 13.8 mph - N/A   Clear
2:16 AM 14.0 °F -0.2 °F 8.6 °F 79% 29.31 in 10.0 mi NE 12.7 mph - N/A   Clear
2:36 AM 14.0 °F -0.8 °F 6.8 °F 73% 29.32 in 10.0 mi NE 13.8 mph - N/A   Partly Cloudy
2:56 AM 15.8 °F 0.3 °F 8.6 °F 73% 29.33 in 10.0 mi NE 16.1 mph - N/A   Scattered Clouds
3:16 AM 15.8 °F 0.9 °F 8.6 °F 73% 29.34 in 10.0 mi NE 15.0 mph 19.6 mph N/A   Partly Cloudy
3:36 AM 15.8 °F -0.2 °F 8.6 °F 73% 29.34 in 10.0 mi NE 17.3 mph - N/A   Mostly Cloudy
3:56 AM 15.8 °F -1.5 °F 10.4 °F 79% 29.34 in 10.0 mi NE 20.7 mph 26.5 mph N/A   Overcast
4:16 AM 17.6 °F 0.9 °F 8.6 °F 68% 29.35 in 10.0 mi NE 20.7 mph 26.5 mph N/A   Overcast
4:36 AM 17.6 °F -0.3 °F 8.6 °F 68% 29.36 in 10.0 mi NE 24.2 mph 27.6 mph N/A   Overcast
4:56 AM 17.6 °F 0.9 °F 8.6 °F 68% 29.37 in 10.0 mi NE 20.7 mph - N/A   Overcast
5:16 AM 17.6 °F 1.3 °F 10.4 °F 73% 29.37 in 10.0 mi ENE 19.6 mph - N/A   Overcast
5:36 AM 15.8 °F -1.5 °F 10.4 °F 79% 29.38 in 10.0 mi ENE 20.7 mph - N/A   Overcast
5:56 AM 17.6 °F 0.5 °F 8.6 °F 68% 29.38 in 10.0 mi NE 21.9 mph - N/A   Overcast
6:16 AM 15.8 °F -1.1 °F 8.6 °F 73% 29.40 in 10.0 mi NE 19.6 mph - N/A   Mostly Cloudy
6:36 AM 17.6 °F 1.7 °F 8.6 °F 68% 29.40 in 10.0 mi ENE 18.4 mph - N/A   Mostly Cloudy
6:56 AM 15.8 °F -2.3 °F 10.4 °F 79% 29.41 in 10.0 mi ENE 23.0 mph - N/A   Overcast
7:16 AM 15.8 °F -1.9 °F 10.4 °F 79% 29.41 in 9.0 mi ENE 21.9 mph 27.6 mph N/A   Overcast
7:36 AM 15.8 °F -2.7 °F 12.2 °F 86% 29.41 in 1.8 mi ENE 24.2 mph - N/A   Overcast
7:56 AM 17.6 °F -0.3 °F 12.2 °F 79% 29.42 in 5.0 mi ENE 24.2 mph 28.8 mph N/A   Overcast
8:16 AM 15.8 °F -3.4 °F 12.2 °F 86% 29.43 in 5.0 mi ENE 26.5 mph 32.2 mph N/A   Overcast
8:36 AM 15.8 °F -2.3 °F 12.2 °F 86% 29.44 in 10.0 mi ENE 23.0 mph 27.6 mph N/A   Overcast
8:56 AM 15.8 °F -1.1 °F 12.2 °F 86% 29.46 in 10.0 mi ENE 19.6 mph 27.6 mph N/A   Overcast
9:16 AM 15.8 °F -1.5 °F 12.2 °F 86% 29.46 in 10.0 mi ENE 20.7 mph - N/A   Overcast
9:36 AM 15.8 °F -2.3 °F 12.2 °F 86% 29.47 in 10.0 mi ENE 23.0 mph 27.6 mph N/A   Overcast
9:56 AM 17.6 °F 0.9 °F 12.2 °F 79% 29.48 in 10.0 mi ENE 20.7 mph - N/A   Overcast
10:16 AM 17.6 °F 0.9 °F 12.2 °F 79% 29.49 in 10.0 mi ENE 20.7 mph - N/A   Overcast
10:36 AM 17.6 °F 1.3 °F 12.2 °F 79% 29.50 in 10.0 mi ENE 19.6 mph - N/A   Overcast
10:56 AM 17.6 °F 1.3 °F 12.2 °F 79% 29.50 in 10.0 mi NE 19.6 mph - N/A   Overcast
11:16 AM 17.6 °F 1.7 °F 12.2 °F 79% 29.51 in 10.0 mi NE 18.4 mph - N/A   Mostly Cloudy
11:36 AM 17.6 °F 1.3 °F 12.2 °F 79% 29.51 in 10.0 mi ENE 19.6 mph 24.2 mph N/A   Mostly Cloudy
11:56 AM 17.6 °F 2.7 °F 12.2 °F 79% 29.53 in 10.0 mi ENE 16.1 mph - N/A   Overcast
12:16 PM 19.4 °F 4.5 °F 15.8 °F 86% 29.54 in 10.0 mi ENE 17.3 mph - N/A   Overcast
12:36 PM 19.4 °F 5.0 °F 15.8 °F 86% 29.55 in 10.0 mi ENE 16.1 mph - N/A   Overcast
12:56 PM 19.4 °F 5.0 °F 15.8 °F 86% 29.55 in 10.0 mi ENE 16.1 mph - N/A   Overcast
1:16 PM 19.4 °F 3.6 °F 15.8 °F 86% 29.56 in 10.0 mi ENE 19.6 mph - N/A   Overcast
1:36 PM 19.4 °F 4.5 °F 15.8 °F 86% 29.56 in 10.0 mi ENE 17.3 mph - N/A   Overcast
1:56 PM 19.4 °F 5.0 °F 15.8 °F 86% 29.57 in 10.0 mi ENE 16.1 mph - N/A   Overcast
2:16 PM 21.2 °F 8.3 °F 17.6 °F 86% 29.57 in 10.0 mi ENE 13.8 mph - N/A   Overcast
2:36 PM 21.2 °F 8.9 °F 19.4 °F 93% 29.58 in 10.0 mi NE 12.7 mph - N/A   Overcast
2:56 PM 21.2 °F 7.3 °F 19.4 °F 93% 29.59 in 10.0 mi ENE 16.1 mph - N/A   Overcast
3:16 PM 23.0 °F 9.6 °F 19.4 °F 86% 29.58 in 10.0 mi ENE 16.1 mph - N/A   Overcast
3:36 PM 23.0 °F 11.1 °F 19.4 °F 86% 29.60 in 10.0 mi ENE 12.7 mph - N/A   Overcast
3:56 PM 23.0 °F 10.1 °F 19.4 °F 86% 29.60 in 2.0 mi ENE 15.0 mph - N/A   Overcast
4:16 PM 24.8 °F 12.9 °F 19.4 °F 80% 29.60 in 1.5 mi ENE 13.8 mph - N/A   Overcast
4:36 PM 23.0 °F 10.1 °F 19.4 °F 86% 29.61 in 3.0 mi ENE 15.0 mph - N/A   Overcast
4:56 PM 23.0 °F 11.1 °F 19.4 °F 86% 29.62 in 6.0 mi ENE 12.7 mph - N/A   Overcast
5:16 PM 23.0 °F 11.1 °F 19.4 °F 86% 29.63 in 10.0 mi ENE 12.7 mph - N/A   Overcast
5:36 PM 23.0 °F 11.1 °F 21.2 °F 93% 29.64 in 10.0 mi ENE 12.7 mph - N/A   Overcast
5:56 PM 23.0 °F 11.7 °F 19.4 °F 86% 29.64 in 10.0 mi ENE 11.5 mph - N/A   Overcast
6:16 PM 24.8 °F 14.6 °F 21.2 °F 86% 29.65 in 10.0 mi ENE 10.4 mph - N/A   Overcast
6:36 PM 24.8 °F 14.6 °F 21.2 °F 86% 29.65 in 3.0 mi ENE 10.4 mph - N/A   Overcast
6:56 PM 26.6 °F 18.2 °F 24.8 °F 93% 29.66 in 3.0 mi NE 8.1 mph - N/A   Overcast
7:16 PM 26.6 °F 18.2 °F 23.0 °F 86% 29.66 in 10.0 mi NE 8.1 mph - N/A   Overcast
7:36 PM 26.6 °F 18.2 °F 24.8 °F 93% 29.66 in 10.0 mi NE 8.1 mph - N/A   Overcast
7:56 PM 26.6 °F 17.5 °F 23.0 °F 86% 29.67 in 10.0 mi NE 9.2 mph - N/A   Overcast
8:16 PM 24.8 °F 14.6 °F 23.0 °F 93% 29.67 in 10.0 mi ENE 10.4 mph - N/A   Overcast
8:36 PM 23.0 °F 13.1 °F 21.2 °F 93% 29.67 in 10.0 mi ENE 9.2 mph - N/A   Mostly Cloudy
8:56 PM 23.0 °F 12.4 °F 19.4 °F 86% 29.68 in 10.0 mi NE 10.4 mph - N/A   Mostly Cloudy
9:16 PM 24.8 °F 14.0 °F 21.2 °F 86% 29.68 in 10.0 mi ENE 11.5 mph - N/A   Overcast
9:36 PM 24.8 °F 14.6 °F 21.2 °F 86% 29.69 in 10.0 mi ENE 10.4 mph - N/A   Overcast
9:56 PM 24.8 °F 13.4 °F 21.2 °F 86% 29.70 in 10.0 mi ENE 12.7 mph - N/A   Overcast
10:16 PM 24.8 °F 16.1 °F 19.4 °F 80% 29.70 in 10.0 mi NE 8.1 mph - N/A   Overcast
10:36 PM 24.8 °F 15.3 °F 21.2 °F 86% 29.70 in 10.0 mi NE 9.2 mph - N/A   Overcast
10:56 PM 24.8 °F 13.4 °F 21.2 °F 86% 29.70 in 10.0 mi ENE 12.7 mph - N/A   Overcast
11:16 PM 24.8 °F 14.6 °F 21.2 °F 86% 29.70 in 10.0 mi ENE 10.4 mph - N/A   Mostly Cloudy
11:36 PM 21.2 °F 8.9 °F 19.4 °F 93% 29.69 in 10.0 mi ENE 12.7 mph - N/A   Clear
11:56 PM 23.0 °F 12.4 °F 19.4 °F 86% 29.70 in 10.0 mi ENE 10.4 mph - N/A   Clear